Flag for Germany Weather past 2 weeks in Oranienburg, Brandenburg, Germany

Now
67 °F

Partly sunny.


Feels Like: 67 °F
Forecast: 44 / 68 °F
Wind: 3 mph from Northwest

Location: Berlin-Tegel

Current Time: May 23, 2015 at 4:57:21 PM

Latest Report: May 23, 2015 at 4:00 PM


Visibility: 17 mi

Pressure: 30.07 "Hg

Humidity: 48%

Dew point: 47 °F

Location of OranienburgLocation

Historic Weather in Oranienburg — Graph

°F

Oranienburg temperature yesterday

Maximum temperature yesterday: 66 °F (at 6:00 PM)
Minimum temperature yesterday: 41 °F (at 5:00 AM)
Average temperature yesterday: 56 °F

Past Weeks' High & Low Weather Summary

 TemperatureHumidityPressure
High82 °F (May 12, 4:00 PM)99% (May 15, 7:00 AM)30.40 "Hg (May 15, 7:00 AM)
Low37 °F (May 15, 6:00 AM)26% (May 12, 4:00 PM)29.59 "Hg (May 19, 4:00 AM)
Average56 °F63%30.04 "Hg
* Reported May 8 4:00 PM — May 23 4:00 PM, Oranienburg, Weather by CustomWeather, © 2015

Note: Actual official high and low records may vary slightly from our data, if they occured in-between our weather recording intervals... More about our weather records

Advertising

Oranienburg weather history for previous 24 hours

 ConditionsComfort  
Time TempWeatherWind HumidityBarometerVisibility
4:00 PM
Sat, May 23
67 °FPartly sunny.3 mph48%30.07 "Hg17 mi
3:00 PM65 °FOvercast.3 mph56%30.08 "Hg15 mi
2:00 PM67 °FOvercast.5 mph51%30.07 "Hg19 mi
1:00 PM66 °FPartly sunny.3 mph52%30.09 "Hg16 mi
12:00 PM62 °FOvercast.3 mph58%30.11 "Hg16 mi
11:00 AM62 °FOvercast.3 mph56%30.12 "Hg16 mi
10:00 AM64 °FOvercast.5 mph57%30.11 "Hg16 mi
9:00 AM63 °FPartly sunny.2 mph59%30.11 "Hg16 mi
8:00 AM60 °FPartly sunny.2 mph67%30.11 "Hg16 mi
7:00 AM57 °FOvercast.1 mph71%30.11 "Hg16 mi
6:00 AM56 °FOvercast.1 mph73%30.11 "Hg16 mi
5:00 AM56 °FOvercast.1 mph73%30.12 "Hg12 mi
4:00 AM56 °FOvercast.No wind73%30.13 "Hg19 mi
3:00 AM57 °FOvercast.1 mph66%30.14 "Hg19 mi
2:00 AM57 °FOvercast.1 mph65%30.16 "Hg19 mi
1:00 AM56 °FOvercast.1 mph65%30.17 "Hg19 mi
12:00 AM56 °FOvercast.1 mph62%30.19 "Hg19 mi
11:00 PM
Fri, May 22
58 °FPassing clouds.1 mph56%30.19 "Hg19 mi
10:00 PM62 °FPassing clouds.1 mph48%30.19 "Hg19 mi
9:00 PM63 °FScattered clouds.2 mph43%30.18 "Hg19 mi
8:00 PM65 °FPartly sunny.3 mph39%30.18 "Hg25 mi
7:00 PM66 °FPartly sunny.2 mph38%30.19 "Hg25 mi
6:00 PM66 °FPartly sunny.2 mph37%30.20 "Hg25 mi
5:00 PM66 °FPartly sunny.2 mph36%30.22 "Hg25 mi
4:00 PM66 °FPartly sunny.2 mph34%30.23 "Hg25 mi
Weather by CustomWeather, © 2015

See weather overviewHow to use our weather pages